Home   Weather   Vancouver   Past weeks

Flag for Canada Past Weather in Vancouver, British Columbia, Canada — Yesterday and Last 2 Weeks

Now
41 °F

Passing clouds.


Feels Like: 36 °F
Forecast: 40 / 44 °F
Wind: 7 mph from East

Location: Vancouver International Airport

Current Time: Jan 22, 2017 at 6:41:55 am

Latest Report: Jan 22, 2017 at 6:00 am


Visibility: 20 mi

Pressure: 29.46 "Hg

Humidity: 87%

Dew Point: 37 °F

Location of VancouverLocation

Past Weather in Vancouver — Graph

°F

Vancouver Temperature Yesterday

Maximum temperature yesterday: 50 °F (at 12:00 pm)
Minimum temperature yesterday: 41 °F (at 1:00 am)
Average temperature yesterday: 45 °F

High & Low Weather Summary for the Past Weeks

 TemperatureHumidityPressure
High52 °F (Jan 18, 1:00 pm)100% (Jan 8, 5:00 pm)30.49 "Hg (Jan 8, 5:00 pm)
Low19 °F (Jan 12, 4:00 am)43% (Jan 10, 11:00 pm)29.14 "Hg (Jan 20, 2:00 pm)
Average37 °F83%29.76 "Hg
* Reported Jan 7 5:00 am — Jan 22 5:00 am, Vancouver, Weather by CustomWeather, © 2017

Note: Actual official high and low records may vary slightly from our data, if they occured in-between our weather recording intervals... More about our weather records

Advertising

Vancouver Weather History for the Previous 24 Hours

Scroll right to see more
 ConditionsComfort  
Time TempWeatherWind HumidityBarometerVisibility
5:00 am
Sun, Jan 22
41 °FPassing clouds.7 mph87%29.51 "Hg20 mi
4:00 am41 °FMostly cloudy.9 mph93%29.54 "Hg20 mi
3:00 am43 °FMostly cloudy.8 mph87%29.56 "Hg20 mi
2:00 am43 °FPartly cloudy.7 mph81%29.57 "Hg20 mi
1:00 am45 °FMostly cloudy.10 mph81%29.60 "Hg20 mi
12:00 am43 °FMostly cloudy.7 mph81%29.60 "Hg20 mi
11:00 pm
Sat, Jan 21
45 °FMostly cloudy.10 mph81%29.58 "Hg20 mi
10:00 pm45 °FMostly cloudy.7 mph81%29.57 "Hg20 mi
9:00 pm43 °FOvercast.2 mph87%29.56 "Hg20 mi
8:00 pm43 °FMostly cloudy.8 mph87%29.53 "Hg20 mi
7:00 pm45 °FPassing clouds.7 mph76%29.51 "Hg20 mi
6:00 pm45 °FPartly cloudy.7 mph81%29.48 "Hg20 mi
5:00 pm48 °FPartly cloudy.9 mph76%29.47 "Hg20 mi
4:00 pm50 °FPartly sunny.8 mph67%29.45 "Hg20 mi
3:00 pm50 °FBroken clouds.5 mph71%29.44 "Hg20 mi
2:27 pm50 °FBroken clouds.7 mph71%29.43 "Hg20 mi
2:07 pm50 °FSprinkles. Broken clouds.7 mph71%29.42 "Hg20 mi
1:00 pm50 °FPartly sunny.6 mph67%29.40 "Hg20 mi
12:00 pm50 °FPartly sunny.8 mph67%29.39 "Hg20 mi
11:00 am46 °FPartly sunny.8 mph82%29.38 "Hg20 mi
10:00 am45 °FPartly sunny.10 mph81%29.36 "Hg20 mi
9:00 am45 °FPartly sunny.9 mph81%29.34 "Hg20 mi
8:00 am43 °FBroken clouds.10 mph87%29.32 "Hg15 mi
7:00 am43 °FMostly cloudy.9 mph87%29.30 "Hg15 mi
6:00 am43 °FMostly cloudy.8 mph81%29.29 "Hg15 mi
Weather by CustomWeather, © 2017

See weather overviewHow to use our weather pages